TimeMDT,TemperatureF,Dew PointF,Humidity,Sea Level PressureIn,VisibilityMPH,Wind Direction,Wind SpeedMPH,Gust SpeedMPH,PrecipitationIn,Events,Conditions,WindDirDegrees,DateUTC
12:48 AM,39.9,27.0,60,30.09,-9999.0,Calm,Calm,-,N/A,,Unknown,0,2013-05-06 06:48:00
1:48 AM,33.1,27.0,78,30.09,-9999.0,Calm,Calm,-,N/A,,Unknown,0,2013-05-06 07:48:00
2:48 AM,30.0,25.0,82,30.09,-9999.0,West,3.5,-,N/A,,Unknown,280,2013-05-06 08:48:00
3:48 AM,30.0,24.1,79,30.09,-9999.0,West,3.5,-,N/A,,Unknown,280,2013-05-06 09:48:00
4:48 AM,28.0,23.0,81,30.08,-9999.0,WNW,3.5,-,N/A,,Unknown,290,2013-05-06 10:48:00
5:48 AM,27.0,23.0,85,30.10,-9999.0,Calm,Calm,-,N/A,,Unknown,0,2013-05-06 11:48:00
6:48 AM,32.0,25.0,75,30.09,-9999.0,Calm,Calm,-,N/A,,Unknown,0,2013-05-06 12:48:00
7:48 AM,41.0,28.9,62,30.08,-9999.0,Calm,Calm,-,N/A,,Unknown,0,2013-05-06 13:48:00
8:48 AM,52.0,30.9,45,30.07,-9999.0,Calm,Calm,-,N/A,,Unknown,0,2013-05-06 14:48:00
9:48 AM,62.1,30.0,30,30.04,-9999.0,SE,5.8,-,N/A,,Unknown,130,2013-05-06 15:48:00
10:48 AM,66.9,26.1,21,30.03,-9999.0,SE,9.2,-,N/A,,Unknown,130,2013-05-06 16:48:00
11:48 AM,69.1,27.0,21,30.03,-9999.0,Variable,4.6,-,N/A,,Unknown,0,2013-05-06 17:48:00
12:48 PM,71.1,26.1,19,30.00,-9999.0,Variable,3.5,-,N/A,,Unknown,0,2013-05-06 18:48:00
1:48 PM,71.1,27.0,19,30.00,-9999.0,SE,8.1,-,N/A,,Unknown,140,2013-05-06 19:48:00
2:48 PM,73.9,26.1,17,29.98,-9999.0,East,8.1,-,N/A,,Unknown,80,2013-05-06 20:48:00
3:48 PM,73.0,27.0,18,29.96,-9999.0,Calm,Calm,-,N/A,,Unknown,0,2013-05-06 21:48:00
4:48 PM,73.9,26.1,17,29.94,-9999.0,Variable,3.5,-,N/A,,Unknown,0,2013-05-06 22:48:00
5:48 PM,73.9,27.0,18,29.93,-9999.0,ESE,10.4,-,N/A,,Unknown,120,2013-05-06 23:48:00
6:48 PM,73.0,27.0,18,29.91,-9999.0,SSE,5.8,-,N/A,,Unknown,160,2013-05-07 00:48:00
7:48 PM,68.0,35.1,30,29.90,-9999.0,ESE,5.8,-,N/A,,Unknown,120,2013-05-07 01:48:00
8:48 PM,60.1,30.9,33,29.90,-9999.0,East,5.8,-,N/A,,Unknown,100,2013-05-07 02:48:00
9:48 PM,55.0,32.0,42,29.91,-9999.0,East,3.5,-,N/A,,Unknown,100,2013-05-07 03:48:00
10:48 PM,53.1,32.0,45,29.90,-9999.0,ESE,5.8,-,N/A,,Unknown,110,2013-05-07 04:48:00
11:48 PM,53.1,30.9,43,29.89,-9999.0,Calm,Calm,-,N/A,,Unknown,0,2013-05-07 05:48:00